Weather Roundup
Issued by NWS

Home | Current Version | Previous Version | Text Only | Print | Product List | Glossary On
Versions: 1 2 3 4 5 6 7 8 9 10 11 12 13 14 15 16 17 18 19 20 21 22 23 24 25 26 27 28 29 30 31 32 33 34 35 36 37 38 39 40 41 42 43 44 45 46 47 48 49 50
000
NZUS93 KARX 230610
HRRWXR

CURRENT HOURLY OBSERVATIONS ACROSS
MUCH OF THE UPPER MISSISSIPPI VALLEY
NATIONAL WEATHER SERVICE LA CROSSE WI
100 AM CDT WED JUL 23 2014


...SOUTHEAST MINNESOTA...


CITY           SKY/WX    TMP DP  RH WIND       PRES   REMARKS
ROCHESTER      CLEAR     66  57  72 N9        30.16R
ROCHESTER/MAYO FAIR      68  55  63 NW3       30.16R
WINONA         CLEAR     70  63  78 NW3       30.14R
AUSTIN         CLEAR     64  57  77 NW6       30.17R
ALBERT LEA     CLEAR     64  55  72 N6        30.17R
DODGE CENTER   PTCLDY    64  57  77 N6        30.17S
PRESTON        CLEAR     65  63  91 N7        30.15R
OWATONNA       CLEAR     61  55  82 CALM      30.18R
FARIBAULT      CLEAR     66  55  68 NW3       30.18R
$$

...ELSEWHERE IN MINNESOTA...


CITY           SKY/WX    TMP DP  RH WIND       PRES   REMARKS
MINNEAPOLIS    CLEAR     70  56  61 N10       30.17R
INTNL FALLS    CLEAR     62  55  77 NE3       30.21R
DULUTH         CLEAR     60  52  74 NW5       30.18S
RED WING       CLEAR     70  55  60 N7        30.14R
REDWOOD FALLS  CLEAR     65  57  75 NW8       30.22R
MANKATO        CLEAR     63  54  72 N8        30.19R
WORTHINGTON    CLEAR     61  55  82 NW7       30.25S
FAIRMONT       CLEAR     64  54  68 NW8       30.20R
$$

...SOUTHWEST WISCONSIN...


CITY           SKY/WX    TMP DP  RH WIND       PRES   REMARKS
LA CROSSE      CLEAR     72  61  68 NE7       30.12R
PRAIRIE DU CHI CLEAR     68  63  85 CALM      30.10R
BOSCOBEL       CLEAR     70  63  78 NE3       30.10R
LONE ROCK      CLEAR     74  61  63 N5        30.10R
PLATTEVILLE    CLEAR     68  64  87 N7        30.10R
FORT MC COY    CLEAR     67  56  68 NE7       30.14R
CAMP DOUGLAS   CLEAR     65  60  86 N6        30.13R
VIROQUA        FAIR      67  59  75 NE9       30.14R
WIS DELLS      CLEAR     67  57  71 N5        30.11R
$$

...ELSEWHERE IN WISCONSIN...


CITY           SKY/WX    TMP DP  RH WIND       PRES   REMARKS
MILWAUKEE      CLOUDY    63  57  81 NE13      30.09R
MADISON        CLEAR     71  62  73 NE15      30.09R
GREEN BAY      CLEAR     62  56  80 N6        30.10R
EAU CLAIRE     CLEAR     64  61  90 N5        30.15R
BLACK RVR FLS  FAIR      63  59  87 CALM      30.13R
MEDFORD        CLEAR     58  56  93 N3        30.16R
WAUSAU         PTCLDY    62  58  86 N6        30.13R
WIS RAPIDS     CLEAR     65  58  78 NE8       30.14R
MARSHFIELD     CLEAR     64  58  80 N5        30.14R
RICE LAKE      CLEAR     61  58  91 CALM      30.18S
$$

...NORTHEAST IOWA...


CITY           SKY/WX    TMP DP  RH WIND       PRES   REMARKS
WATERLOO       CLEAR     65  62  90 NW5       30.11R
DUBUQUE        CLEAR     71  64  78 N9        30.09R
DECORAH        CLEAR     68  63  83 N7        30.12R
MASON CITY     CLEAR     61  58  90 N8        30.17S
CHARLES CITY   CLEAR     64  61  88 NW7       30.15R
OELWEIN        CLEAR     64  63  94 NW7       30.13R
$$

...ELSEWHERE IN IOWA...


CITY           SKY/WX    TMP DP  RH WIND       PRES   REMARKS
DES MOINES     CLEAR     75  62  64 N10       30.13R
IOWA CITY      CLEAR     76  66  71 N10       30.09R
FORT DODGE     CLEAR     64  57  77 N5        30.18S
MARSHALLTOWN   CLEAR     67  64  90 N6        30.12R
CEDAR RAPIDS   CLEAR     70  65  84 N9        30.08R
$$

...NORTHERN ILLINOIS...


CITY           SKY/WX    TMP DP  RH WIND       PRES   REMARKS
CHICAGO-OHARE  CLOUDY    74  63  68 NE18G24   30.02R
DUPAGE         CLOUDY    75  66  73 NE13      30.01R
CHICAGO-MIDWAY CLOUDY    77  71  82 NE16      30.01R
MOLINE         CLEAR     78  69  73 N6        30.04R
ROCKFORD       PTCLDY    77  64  64 NE18      30.05R
STERLING       MOCLDY    75  68  78 NE9       30.04R
PEORIA         PTCLDY    81  74  79 W6        30.01R
$$

NOTE: "FAIR" INDICATES FEW OR NO CLOUDS BELOW 12,000 FEET WITH NO
SIGNIFICANT WEATHER AND/OR OBSTRUCTIONS TO VISIBILITY. WIND
SPEEDS ARE IN MILES-PER-HOUR.



USA.gov is the U.S. government's official web portal to all federal, state and local government web resources and services.